Location: Chin
(49.7667°N, 112.4500°W)
Time: 12:19:54
(UTC+00:00)

N. Korean satellite - Pass Details

Date: 05 December 2021
Orbit: 447 x 491 km, 97.3° (Epoch: 21 January)

Event Time Altitude Azimuth Distance (km) Brightness Sun altitude
Rises 00:51:04 0° 206° (SSW) 2,527 10.9 -12.4°
Reaches altitude 10° 00:53:44 10° 228° (SW) 1,644 10.4 -12.8°
Maximum altitude 00:56:02 16° 268° (W) 1,297 9.8 -13.1°
Drops below altitude 10° 00:58:19 10° 309° (NW) 1,635 9.7 -13.5°
Sets 01:00:58 0° 332° (NNW) 2,507 10.3 -13.9°
